TimeMST,TemperatureF,Dew PointF,Humidity,Sea Level PressureIn,VisibilityMPH,Wind Direction,Wind SpeedMPH,Gust SpeedMPH,PrecipitationIn,Events,Conditions,WindDirDegrees,DateUTC
12:51 AM,28.9,24.1,82,30.08,10.0,WNW,5.8,-,N/A,,Clear,290,2012-11-19 07:51:00
1:51 AM,30.9,26.1,82,30.07,10.0,West,6.9,-,N/A,,Clear,280,2012-11-19 08:51:00
3:51 AM,28.9,23.0,78,30.10,10.0,NNW,4.6,-,N/A,,Clear,340,2012-11-19 10:51:00
4:51 AM,30.0,24.1,79,30.12,10.0,NW,3.5,-,N/A,,Scattered Clouds,320,2012-11-19 11:51:00
5:51 AM,28.0,21.9,78,30.13,10.0,Calm,Calm,-,N/A,,Clear,0,2012-11-19 12:51:00
6:51 AM,26.1,21.0,81,30.15,10.0,SE,3.5,-,N/A,,Partly Cloudy,130,2012-11-19 13:51:00
7:51 AM,28.0,23.0,81,30.17,10.0,Calm,Calm,-,N/A,,Clear,0,2012-11-19 14:51:00
8:51 AM,34.0,28.0,79,30.16,10.0,Calm,Calm,-,N/A,,Clear,0,2012-11-19 15:51:00
9:51 AM,41.0,28.0,60,30.16,10.0,Calm,Calm,-,N/A,,Clear,0,2012-11-19 16:51:00
10:51 AM,45.0,30.9,58,30.14,10.0,ESE,8.1,-,N/A,,Clear,110,2012-11-19 17:51:00
11:51 AM,48.9,28.0,44,30.12,10.0,SE,11.5,-,N/A,,Clear,130,2012-11-19 18:51:00
12:51 PM,54.0,24.1,31,30.10,10.0,SE,9.2,-,N/A,,Clear,140,2012-11-19 19:51:00
1:51 PM,54.0,25.0,33,30.09,10.0,SSE,12.7,-,N/A,,Clear,160,2012-11-19 20:51:00
2:51 PM,54.0,25.0,33,30.08,10.0,SSE,11.5,-,N/A,,Clear,160,2012-11-19 21:51:00
3:51 PM,48.0,27.0,44,30.08,10.0,SSE,9.2,-,N/A,,Clear,150,2012-11-19 22:51:00
4:51 PM,42.1,25.0,51,30.10,10.0,South,12.7,-,N/A,,Clear,180,2012-11-19 23:51:00
5:51 PM,43.0,21.0,42,30.09,10.0,South,13.8,-,N/A,,Clear,170,2012-11-20 00:51:00
7:51 PM,42.1,23.0,47,30.08,10.0,South,17.3,-,N/A,,Clear,170,2012-11-20 02:51:00
8:51 PM,39.0,24.1,55,30.06,10.0,South,15.0,-,N/A,,Clear,170,2012-11-20 03:51:00
10:51 PM,34.0,24.1,67,30.03,10.0,ESE,8.1,-,N/A,,Clear,110,2012-11-20 05:51:00
11:51 PM,33.1,25.0,72,30.01,10.0,East,9.2,-,N/A,,Clear,100,2012-11-20 06:51:00